Regional Weather Roundup
Issued by NWS Midland/Odessa, TX

Skip options and go directly to product.
Home | Oldest Version | Previous Version | Current Version | All | Graphics & Text | Save Text | Print | Product List | Glossary On

Skip product version selection by date and time.   
104
ASUS44 KMAF 301910
RWRMAF
MIDLAND AREA WEATHER ROUNDUP
NATIONAL WEATHER SERVICE MIDLAND TX
200 PM CDT TUE JUN 30 2015

...IN SOUTHWEST TEXAS AND SOUTHEAST NEW MEXICO...

CITY           SKY/WX    TMP DP  RH WIND       PRES   REMARKS
ALPINE         PTSUNNY   82  55  39 SE8       30.21F
ANDREWS        FAIR      83  61  47 SE13G21   30.12F
ARTESIA        MOSUNNY   84  59  42 VRB7      30.13F
BIG SPRING     SUNNY     82  59  46 S5        30.12F
CARLSBAD       MOSUNNY   87  57  35 E7        30.09F
DRYDEN           N/A     89  66  46 SE8G18    30.03F
FORT STOCKTON  MOSUNNY   84  61  45 E9G23     30.09F
GUAD PASS      MOSUNNY   77  58  51 NE16G23   30.24F
HOBBS          MOSUNNY   84  54  34 VRB6      30.13F
MARFA          CLOUDY   N/A N/A N/A E7G21     30.20F
MIDLAND AIRPK  MOSUNNY   83  62  50 S7        30.12F
MIDLAND INTL   MOSUNNY   80  63  55 S6        30.11F
ODESSA         MOSUNNY   79  62  56 VRB5      30.13F
PECOS          PTSUNNY   78  61  54 CALM      30.09F
PRESIDIO       FAIR      90  61  38 MISG      30.05S
SEMINOLE       MOSUNNY   91  55  29 E9        30.11F
SNYDER         SUNNY     82  64  55 S12G17    30.10F
WINK           MOSUNNY   83  58  42 CALM      30.09F
$$
...OTHER STATIONS IN TEXAS...

CITY           SKY/WX    TMP DP  RH WIND       PRES   REMARKS
ABILENE        MOSUNNY   88  66  48 SW7       30.06F
AMARILLO       SUNNY     86  54  33 VRB7      30.12F
AUSTIN         PTSUNNY   90  72  55 S8        30.00F
BROWNSVILLE    CLOUDY    84  75  74 SE13      30.03F
CORPUS CHRISTI CLOUDY    80  71  74 S20       30.03F
DALLAS FTW     MOSUNNY   92  72  51 SW9       29.99F
DEL RIO        PTSUNNY   86  71  60 SE9       29.99F
EL PASO        CLOUDY    85  57  38 E9        30.10F
HOUSTON INT    CLOUDY    90  72  55 CALM      30.00F THUNDER
LUBBOCK        MOSUNNY   87  57  35 E9        30.11F
SAN ANGELO     MOSUNNY   87  68  52 S9        30.05F
SAN ANTONIO    PTSUNNY   88  71  57 E3        30.00F
WACO           SUNNY     88  73  61 S6        30.01F
WICHITA FALLS  NOT AVBL
$$
...OTHER LOCATIONS IN NEW MEXICO...

CITY           SKY/WX    TMP DP  RH WIND       PRES   REMARKS
ALAMAGORDO     PTSUNNY   88  50  27 S8        30.10F
ALBUQUERQUE    MOSUNNY   87  47  24 VRB3      30.20F
CANNON AFB     PTSUNNY   84  54  35 VRB2      30.16F HAZE
CLOVIS         SUNNY     82  54  36 S6        30.17F
HOLLOMAN AFB   NOT AVBL
ROSWELL        MOSUNNY   86  59  39 SE10      30.12F
RUIDOSO        MOSUNNY   73  50  43 MISG      30.34F
SANTA FE       SUNNY     83  42  23 NW6       30.26F
TRUTH OR CONSE SUNNY     87  50  27 VRB3      30.15F
TUCUMCARI      SUNNY     89  48  24 CALM      30.12F
$$

USA.gov is the U.S. government's official web portal to all federal, state and local government web resources and services.